This demonstration page uses our WeatherBlox Daily Observations layout. Learn more.

Left ArrowRight Arrow

40.97296, -117.73568

Hourly Observations for August 23, 2016

Temp ( °F °C ) Dew Point ( °F °C ) Humidity (%) Winds ( mph kmh ) Pressure ( in mb ) Visibility ( mi km ) Precip ( " mm )
12:56 am 00:56 Clear 68 20 34 1.1 28 28 Calm 29.87 1012 10 16 0.00 0.00
1:56 am 01:56 Clear 64 17.8 34 1.1 33 33 Calm 29.88 1012 10 16 0.00 0.00
2:56 am 02:56 Clear 57 13.9 33 0.6 41 41 Calm 29.90 1013 10 16 0.00 0.00
3:56 am 03:56 Clear 58 14.4 33 0.6 39 39 WNW 6 9 29.92 1013 10 16 0.00 0.00
4:56 am 04:56 Clear 56 13.3 23 -5 28 28 W 8 13 29.94 1014 10 16 0.00 0.00
5:56 am 05:56 Clear 55 12.8 22 -5.6 28 28 Calm 29.97 1015 10 16 0.00 0.00
6:56 am 06:56 Sunny 55 12.8 24 -4.4 30 30 VRB 3 6 29.99 1016 10 16 0.00 0.00
7:56 am 07:56 Sunny 67 19.4 24 -4.4 20 20 WNW 6 9 29.99 1016 10 16 0.00 0.00
8:56 am 08:56 Sunny 72 22.2 26 -3.3 18 18 NNW 7 11 29.99 1016 10 16 0.00 0.00
9:56 am 09:56 Sunny 77 25 27 -2.8 16 16 undefined N/A 29.99 1016 10 16 0.00 0.00
10:56 am 10:56 Sunny 80 26.7 28 -2.2 15 15 undefined N/A 29.98 1015 10 16 0.00 0.00
11:56 am 11:56 Sunny 83 28.3 29 -1.7 14 14 undefined N/A 29.97 1015 10 16 0.00 0.00
12:56 pm 12:56 Sunny 87 30.6 27 -2.8 11 11 undefined N/A 29.95 1014 10 16 0.00 0.00
1:56 pm 13:56 Sunny 88 31.1 26 -3.3 10 10 undefined N/A 29.95 1014 10 16 0.00 0.00
2:56 pm 14:56 Sunny 89 31.7 21 -6.1 8 8 W 16 26 29.94 1014 10 16 0.00 0.00
3:56 pm 15:56 Sunny 89 31.7 22 -5.6 8 8 WNW 14 22 29.93 1014 10 16 0.00 0.00
4:56 pm 16:56 Sunny 88 31.1 22 -5.6 9 9 WNW 12 19 29.92 1013 10 16 0.00 0.00
5:56 pm 17:56 Sunny 88 31.1 20 -6.7 8 8 NW 12 19 29.91 1013 10 16 0.00 0.00
6:56 pm 18:56 Sunny 86 30 18 -7.8 8 8 NW 13 20 29.92 1013 10 16 0.00 0.00
7:56 pm 19:56 Clear 78 25.6 21 -6.1 12 12 N 8 13 29.93 1014 10 16 0.00 0.00
8:56 pm 20:56 Clear 71 21.7 22 -5.6 16 16 NNW 9 15 29.97 1015 10 16 0.00 0.00
9:56 pm 21:56 Clear 70 21.1 20 -6.7 15 15 NNW 10 17 29.98 1015 10 16 0.00 0.00
10:56 pm 22:56 Clear 68 20 17 -8.3 14 14 N 9 15 30.00 1016 10 16 0.00 0.00
11:56 pm 23:56 Clear 67 19.4 17 -8.3 15 15 N 10 17 30.01 1016 10 16 0.00 0.00

Powered by AerisWeather